Location: *
(51.0333°S, 178.4667°E)
Time: 20:59:39
(UTC+00:00)

Abrixas rocket - Pass Details

Date: 15 November 2019
Orbit: 358 x 366 km, 48.4° (Epoch: 09 December)

Event Time Altitude Azimuth Distance (km) Brightness Sun altitude
Rises 08:56:27 0° 280° (W) 2,237 6.4 -10.7°
Reaches altitude 10° 08:58:32 10° 285° (WNW) 1,386 5.2 -11.0°
Maximum altitude 09:01:33 52° 2° (N) 475 2.2 -11.3°
Enters shadow 09:03:55 15° 76° (ENE) 1,113 3.9 -11.5°
